Adana, Turkey

2:21 PM +03 on September 21, 2017 (GMT +0300)
Adana

Weather History for LTAF - November, 2012

Change the Weather History Date:

Thursday, November 29, 2012

  Actual Average Record
Temperature  
Mean Temperature 58 °F -  
Max Temperature 69 °F 60 °F 80 °F (2010)
Min Temperature 46 °F 41 °F 32 °F (1999)
Degree Days  
Heating Degree Days 8    
Growing Degree Days 8 (Base 50)    
Moisture  
Dew Point 43 °F    
Average Humidity 62    
Maximum Humidity 87    
Minimum Humidity 33    
Precipitation  
Precipitation 0.00 in 0.18 in - ()
Sea Level Pressure  
Sea Level Pressure 30.14 in    
Wind  
Wind Speed 3 mph ()    
Max Wind Speed 7 mph    
Max Gust Speed -    
Visibility 3.1 miles    
Events      
Averages and records for this station are not official NWS values.
T = Trace of Precipitation, MM = Missing Value Source: Averaged Metar Reports

Daily Weather History Graph

Daily Weather History Graph

Search for Another Location

Airport or City:

Trip Planner

Search our weather history database for the weather conditions in past years. The results will help you decide how hot, cold, wet, or windy it might be!

Date:

Astronomy

Nov. 29, 2012 Rise Set
Actual Time 6:31 AM EET 4:22 PM EET
Civil Twilight 6:03 AM EET 4:51 PM EET
Nautical Twilight 5:31 AM EET 5:23 PM EET
Astronomical Twilight 4:59 AM EET 5:54 PM EET
Moon 5:08 PM EET (11/29) 7:01 AM EET (11/29)
Length of Visible Light 10h 47m
Length of Day
9h 50m
Waxing Gibbous, 99% of the Moon is Illuminated
Nov 29
Waxing Gibbous
Dec 6
Last Quarter
Dec 13
New
Dec 20
First Quarter
Dec 28
Full

Hourly Weather History & Observations

Time (EET) Temp. Windchill Dew Point Humidity Pressure Visibility Wind Dir Wind Speed Gust Speed Precip Events Conditions
12:20 AM 50.0 °F - 42.8 °F 76% 30.18 in 3.1 mi Calm Calm - N/A   Mist
12:50 AM 46.4 °F - 41.0 °F 81% 30.18 in 3.1 mi ENE 2.3 mph - N/A   Mist
1:20 AM 46.4 °F 45.2 °F 42.8 °F 87% 30.18 in 3.1 mi NNE 3.5 mph - N/A   Mist
1:50 AM 48.2 °F - 42.8 °F 82% 30.15 in 3.1 mi North 2.3 mph - N/A   Mist
2:20 AM 50.0 °F - 42.8 °F 76% 30.15 in 3.1 mi North 4.6 mph - N/A   Mist
2:50 AM 48.2 °F - 42.8 °F 82% 30.15 in 3.1 mi North 4.6 mph - N/A   Mist
3:20 AM 46.4 °F - 41.0 °F 81% 30.15 in 3.1 mi Variable 1.2 mph - N/A   Mist
3:50 AM 50.0 °F - 42.8 °F 76% 30.15 in 3.1 mi NNW 4.6 mph - N/A   Mist
4:20 AM 50.0 °F - 41.0 °F 71% 30.15 in 3.1 mi North 2.3 mph - N/A   Mist
4:50 AM 48.2 °F - 41.0 °F 76% 30.15 in 3.1 mi North 3.5 mph - N/A   Mist
5:20 AM 48.2 °F - 41.0 °F 76% 30.15 in 3.1 mi North 4.6 mph - N/A   Mist
5:50 AM 46.4 °F 43.5 °F 41.0 °F 81% 30.15 in 3.1 mi NNE 5.8 mph - N/A   Mist
6:20 AM 48.2 °F - 42.8 °F 82% 30.15 in 3.1 mi NNE 5.8 mph - N/A   Mist
6:50 AM 48.2 °F - 42.8 °F 82% 30.15 in 3.1 mi North 4.6 mph - N/A   Mist
7:20 AM 51.8 °F - 42.8 °F 71% 30.18 in 3.1 mi NNW 3.5 mph - N/A   Mist
7:50 AM 51.8 °F - 44.6 °F 76% 30.18 in 3.1 mi NNW 3.5 mph - N/A   Mist
8:20 AM 53.6 °F - 42.8 °F 67% 30.18 in - North 6.9 mph - N/A   Clear
8:50 AM 57.2 °F - 42.8 °F 59% 30.18 in - North 4.6 mph - N/A   Clear
9:20 AM 59.0 °F - 44.6 °F 59% 30.18 in - North 3.5 mph - N/A   Clear
9:50 AM 60.8 °F - 42.8 °F 52% 30.18 in - NNE 6.9 mph - N/A   Clear
10:20 AM 62.6 °F - 42.8 °F 48% 30.18 in - NNE 6.9 mph - N/A   Clear
10:50 AM 64.4 °F - 44.6 °F 49% 30.15 in - NNE 5.8 mph - N/A   Clear
11:20 AM 64.4 °F - 44.6 °F 49% 30.15 in - NNE 5.8 mph - N/A   Clear
11:50 AM 66.2 °F - 44.6 °F 46% 30.12 in - NE 5.8 mph - N/A   Clear
12:20 PM 66.2 °F - 42.8 °F 43% 30.12 in - NE 4.6 mph - N/A   Clear
12:50 PM 68.0 °F - 42.8 °F 40% 30.12 in - Variable 2.3 mph - N/A   Clear
1:20 PM 68.0 °F - 41.0 °F 37% 30.12 in - North 4.6 mph - N/A   Clear
1:50 PM 69.8 °F - 39.2 °F 33% 30.09 in - Variable 2.3 mph - N/A   Clear
2:20 PM 68.0 °F - 41.0 °F 37% 30.09 in - NE 4.6 mph - N/A   Clear
2:50 PM 68.0 °F - 41.0 °F 37% 30.09 in - Variable 2.3 mph - N/A   Clear
3:20 PM 68.0 °F - 39.2 °F 35% 30.09 in - Calm Calm - N/A   Clear
3:50 PM 66.2 °F - 39.2 °F 37% 30.12 in - Variable 1.2 mph - N/A   Clear
4:20 PM 62.6 °F - 41.0 °F 45% 30.09 in - Calm Calm - N/A   Clear
4:50 PM 62.6 °F - 42.8 °F 48% 30.09 in 3.7 mi West 3.5 mph - N/A   Unknown
5:20 PM 59.0 °F - 42.8 °F 55% 30.12 in 3.1 mi Calm Calm - N/A   Haze
5:50 PM 59.0 °F - 44.6 °F 59% 30.12 in 3.1 mi Calm Calm - N/A   Haze
6:20 PM 57.2 °F - 44.6 °F 63% 30.12 in 2.5 mi Calm Calm - N/A   Haze
6:50 PM 57.2 °F - 44.6 °F 63% 30.12 in 2.5 mi Calm Calm - N/A   Haze
7:20 PM 57.2 °F - 44.6 °F 63% 30.12 in 2.5 mi North 3.5 mph - N/A   Haze
7:50 PM 57.2 °F - 44.6 °F 63% 30.12 in 3.1 mi NW 2.3 mph - N/A   Haze
8:20 PM 57.2 °F - 46.4 °F 67% 30.12 in 3.1 mi Variable 2.3 mph - N/A   Haze
8:50 PM 59.0 °F - 44.6 °F 59% 30.12 in 3.1 mi NNE 3.5 mph - N/A   Haze
9:20 PM 55.4 °F - 46.4 °F 72% 30.12 in 3.1 mi NE 6.9 mph - N/A   Mist
9:50 PM 57.2 °F - 46.4 °F 67% 30.12 in 3.1 mi North 4.6 mph - N/A   Haze
10:20 PM 59.0 °F - 44.6 °F 59% 30.12 in 3.1 mi North 3.5 mph - N/A   Haze
10:50 PM 57.2 °F - 46.4 °F 67% 30.12 in 3.1 mi NNW 3.5 mph - N/A   Haze
11:20 PM 57.2 °F - 46.4 °F 67% 30.12 in 3.1 mi North 2.3 mph - N/A   Haze
11:50 PM 55.4 °F - 44.6 °F 67% 30.12 in 3.1 mi Variable 2.3 mph - N/A   Haze